Location: LewisvilleTX
(33.0462°N, 96.9942°W)
Time: 05:40:05
(UTC+00:00)

Envisat - Pass Details

Date: 01 October 2019
Orbit: 764 x 766 km, 98.1° (Epoch: 18 November)

Event Time Altitude Azimuth Distance (km) Brightness Sun altitude
Rises 00:48:41 0° 171° (S) 3,216 6.1 -8.1°
Reaches altitude 10° 00:50:58 10° 173° (S) 2,293 5.4 -8.6°
Maximum altitude 00:56:01 74° 258° (WSW) 797 3.3 -9.6°
Drops below altitude 10° 01:01:07 10° 344° (NNW) 2,308 5.7 -10.7°
Sets 01:03:26 0° 346° (NNW) 3,238 6.5 -11.2°
